contact:dominique.lefevre@mio.osupytheas.fr, maurice.libes@osupytheas.fr, didier.mallarino@osupytheas.fr
Project:EMSO http://www.emso-fr.org/EMSO-France
Depth: 2436.0 m
Title:EMSO Ligure Ouest : Data MII capteur MICROCAT
DateTime_Computer,Latitude,Longitude,Temperature,Conductivity,Pressure,DateTime_Instrument
DateTime_Computer,Latitude,Longitude,degC,S m-1,dbar,DateTime_Instrument
2023-03-13T00:02:47Z,42.805,6.029,13.3060,4.60110,2470.787,2023-3-13T02:05:25Z
2023-03-13T00:05:50Z,42.805,6.029,13.3036,4.60102,2470.8,2023-3-13T02:08:28Z
2023-03-13T00:08:53Z,42.805,6.029,13.3051,4.60096,2470.763,2023-3-13T02:11:31Z
2023-03-13T00:11:56Z,42.805,6.029,13.3041,4.60108,2470.74,2023-3-13T02:14:34Z
2023-03-13T00:14:59Z,42.805,6.029,13.3026,4.60115,2470.74,2023-3-13T02:17:37Z
2023-03-13T00:18:02Z,42.805,6.029,13.3043,4.60114,2470.75,2023-3-13T02:20:40Z
2023-03-13T00:21:05Z,42.805,6.029,13.3029,4.60107,2470.73,2023-3-13T02:23:43Z
2023-03-13T00:24:08Z,42.805,6.029,13.3034,4.60103,2470.763,2023-3-13T02:26:46Z
2023-03-13T00:27:11Z,42.805,6.029,13.3031,4.60104,2470.75,2023-3-13T02:29:49Z
2023-03-13T00:30:14Z,42.805,6.029,13.3034,4.60105,2470.763,2023-3-13T02:32:53Z
2023-03-13T00:33:17Z,42.805,6.029,13.3037,4.60102,2470.754,2023-3-13T02:35:56Z
2023-03-13T00:36:20Z,42.805,6.029,13.3039,4.60122,2470.777,2023-3-13T02:38:59Z
2023-03-13T00:39:24Z,42.805,6.029,13.3043,4.60109,2470.777,2023-3-13T02:42:02Z
2023-03-13T00:42:27Z,42.805,6.029,13.3041,4.60099,2470.787,2023-3-13T02:45:05Z
2023-03-13T00:45:30Z,42.805,6.029,13.3049,4.60094,2470.75,2023-3-13T02:48:08Z
2023-03-13T00:48:33Z,42.805,6.029,13.3046,4.60087,2470.787,2023-3-13T02:51:11Z
2023-03-13T00:51:36Z,42.805,6.029,13.3039,4.60101,2470.754,2023-3-13T02:54:14Z
2023-03-13T00:54:39Z,42.805,6.029,13.3038,4.60104,2470.763,2023-3-13T02:57:17Z
2023-03-13T00:57:42Z,42.805,6.029,13.3034,4.60102,2470.763,2023-3-13T03:00:20Z
2023-03-13T01:00:45Z,42.805,6.029,13.3036,4.60106,2470.74,2023-3-13T03:03:23Z
2023-03-13T01:03:48Z,42.805,6.029,13.3032,4.60114,2470.763,2023-3-13T03:06:26Z
2023-03-13T01:06:51Z,42.805,6.029,13.3042,4.60092,2470.777,2023-3-13T03:09:29Z
2023-03-13T01:09:54Z,42.805,6.029,13.3037,4.60093,2470.73,2023-3-13T03:12:33Z
2023-03-13T01:12:57Z,42.805,6.029,13.3044,4.60104,2470.763,2023-3-13T03:15:36Z
2023-03-13T01:16:00Z,42.805,6.029,13.3039,4.60092,2470.74,2023-3-13T03:18:39Z
2023-03-13T01:19:04Z,42.805,6.029,13.3040,4.60097,2470.763,2023-3-13T03:21:42Z
2023-03-13T01:22:07Z,42.805,6.029,13.3037,4.60105,2470.73,2023-3-13T03:24:45Z
2023-03-13T01:25:10Z,42.805,6.029,13.3031,4.60152,2470.754,2023-3-13T03:27:48Z
2023-03-13T01:28:13Z,42.805,6.029,13.3050,4.60103,2470.717,2023-3-13T03:30:51Z
2023-03-13T01:31:16Z,42.805,6.029,13.3058,4.60107,2470.74,2023-3-13T03:33:54Z
2023-03-13T01:34:19Z,42.805,6.029,13.3040,4.60097,2470.707,2023-3-13T03:36:57Z
2023-03-13T01:37:22Z,42.805,6.029,13.3044,4.60104,2470.73,2023-3-13T03:40:00Z
2023-03-13T01:40:25Z,42.805,6.029,13.3034,4.60106,2470.73,2023-3-13T03:43:03Z
2023-03-13T01:43:28Z,42.805,6.029,13.3046,4.60095,2470.717,2023-3-13T03:46:06Z
2023-03-13T01:46:31Z,42.805,6.029,13.3034,4.60110,2470.717,2023-3-13T03:49:09Z
2023-03-13T01:49:34Z,42.805,6.029,13.3041,4.60105,2470.73,2023-3-13T03:52:13Z
2023-03-13T01:52:37Z,42.805,6.029,13.3041,4.60101,2470.74,2023-3-13T03:55:16Z
2023-03-13T01:55:40Z,42.805,6.029,13.3029,4.60095,2470.717,2023-3-13T03:58:19Z
2023-03-13T01:58:44Z,42.805,6.029,13.3032,4.60110,2470.67,2023-3-13T04:01:22Z
2023-03-13T02:01:47Z,42.805,6.029,13.3040,4.60098,2470.74,2023-3-13T04:04:25Z
2023-03-13T02:04:50Z,42.805,6.029,13.3031,4.60114,2470.717,2023-3-13T04:07:28Z
2023-03-13T02:07:53Z,42.805,6.029,13.3035,4.60098,2470.707,2023-3-13T04:10:31Z
2023-03-13T02:10:56Z,42.805,6.029,13.3041,4.60088,2470.707,2023-3-13T04:13:34Z
2023-03-13T02:13:59Z,42.805,6.029,13.3037,4.60097,2470.73,2023-3-13T04:16:37Z
2023-03-13T02:17:02Z,42.805,6.029,13.3031,4.60106,2470.693,2023-3-13T04:19:40Z
2023-03-13T02:20:05Z,42.805,6.029,13.3039,4.60102,2470.67,2023-3-13T04:22:43Z
2023-03-13T02:23:08Z,42.805,6.029,13.3032,4.60099,2470.73,2023-3-13T04:25:46Z
2023-03-13T02:26:11Z,42.805,6.029,13.3059,4.60096,2470.707,2023-3-13T04:28:50Z
2023-03-13T02:29:14Z,42.805,6.029,13.3029,4.60107,2470.707,2023-3-13T04:31:53Z
2023-03-13T02:32:17Z,42.805,6.029,13.3029,4.60092,2470.717,2023-3-13T04:34:56Z
2023-03-13T02:35:21Z,42.805,6.029,13.3033,4.60102,2470.67,2023-3-13T04:37:59Z
2023-03-13T02:38:24Z,42.805,6.029,13.3041,4.60082,2470.717,2023-3-13T04:41:02Z
2023-03-13T02:41:27Z,42.805,6.029,13.3039,4.60085,2470.717,2023-3-13T04:44:05Z
2023-03-13T02:44:30Z,42.805,6.029,13.3031,4.60092,2470.684,2023-3-13T04:47:08Z
2023-03-13T02:47:33Z,42.805,6.029,13.3030,4.60099,2470.693,2023-3-13T04:50:11Z
2023-03-13T02:50:36Z,42.805,6.029,13.3043,4.60092,2470.707,2023-3-13T04:53:14Z
2023-03-13T02:53:39Z,42.805,6.029,13.3039,4.60094,2470.707,2023-3-13T04:56:17Z
2023-03-13T02:56:42Z,42.805,6.029,13.3044,4.60096,2470.684,2023-3-13T04:59:20Z
2023-03-13T02:59:45Z,42.805,6.029,13.3029,4.60094,2470.684,2023-3-13T05:02:23Z
2023-03-13T03:02:48Z,42.805,6.029,13.3029,4.60087,2470.67,2023-3-13T05:05:27Z
2023-03-13T03:05:51Z,42.805,6.029,13.3029,4.60088,2470.73,2023-3-13T05:08:30Z
2023-03-13T03:08:54Z,42.805,6.029,13.3037,4.60088,2470.717,2023-3-13T05:11:33Z
2023-03-13T03:11:57Z,42.805,6.029,13.3034,4.60096,2470.707,2023-3-13T05:14:36Z
2023-03-13T03:15:01Z,42.805,6.029,13.3033,4.60092,2470.684,2023-3-13T05:17:39Z
2023-03-13T03:18:04Z,42.805,6.029,13.3034,4.60092,2470.707,2023-3-13T05:20:42Z
2023-03-13T03:21:07Z,42.805,6.029,13.3053,4.60096,2470.67,2023-3-13T05:23:45Z
2023-03-13T03:24:10Z,42.805,6.029,13.3036,4.60087,2470.684,2023-3-13T05:26:48Z
2023-03-13T03:27:13Z,42.805,6.029,13.3041,4.60101,2470.707,2023-3-13T05:29:51Z
2023-03-13T03:30:16Z,42.805,6.029,13.3034,4.60092,2470.693,2023-3-13T05:32:54Z
2023-03-13T03:33:19Z,42.805,6.029,13.3037,4.60096,2470.707,2023-3-13T05:35:57Z
2023-03-13T03:36:22Z,42.805,6.029,13.3034,4.60091,2470.693,2023-3-13T05:39:00Z
2023-03-13T03:39:25Z,42.805,6.029,13.3036,4.60098,2470.67,2023-3-13T05:42:04Z
2023-03-13T03:42:28Z,42.805,6.029,13.3039,4.60094,2470.684,2023-3-13T05:45:07Z
2023-03-13T03:45:31Z,42.805,6.029,13.3036,4.60093,2470.693,2023-3-13T05:48:10Z
2023-03-13T03:48:34Z,42.805,6.029,13.3034,4.60092,2470.693,2023-3-13T05:51:13Z
2023-03-13T03:51:38Z,42.805,6.029,13.3036,4.60085,2470.67,2023-3-13T05:54:16Z
2023-03-13T03:54:41Z,42.805,6.029,13.3033,4.60089,2470.707,2023-3-13T05:57:19Z
2023-03-13T03:57:44Z,42.805,6.029,13.3032,4.60087,2470.693,2023-3-13T06:00:22Z
2023-03-13T04:00:47Z,42.805,6.029,13.3035,4.60088,2470.693,2023-3-13T06:03:25Z
2023-03-13T04:03:50Z,42.805,6.029,13.3031,4.60096,2470.67,2023-3-13T06:06:28Z
2023-03-13T04:06:53Z,42.805,6.029,13.3026,4.60084,2470.707,2023-3-13T06:09:31Z
2023-03-13T04:09:56Z,42.805,6.029,13.3031,4.60090,2470.67,2023-3-13T06:12:34Z
2023-03-13T04:12:59Z,42.805,6.029,13.3033,4.60091,2470.693,2023-3-13T06:15:37Z
2023-03-13T04:16:02Z,42.805,6.029,13.3039,4.60098,2470.67,2023-3-13T06:18:40Z
2023-03-13T04:19:05Z,42.805,6.029,13.3036,4.60091,2470.67,2023-3-13T06:21:44Z
2023-03-13T04:22:08Z,42.805,6.029,13.3036,4.60092,2470.684,2023-3-13T06:24:47Z
2023-03-13T04:25:11Z,42.805,6.029,13.3035,4.60088,2470.661,2023-3-13T06:27:50Z
2023-03-13T04:28:14Z,42.805,6.029,13.3031,4.60084,2470.646,2023-3-13T06:30:53Z
2023-03-13T04:31:18Z,42.805,6.029,13.3031,4.60088,2470.67,2023-3-13T06:33:56Z
2023-03-13T04:34:21Z,42.805,6.029,13.3034,4.60087,2470.661,2023-3-13T06:36:59Z
2023-03-13T04:37:24Z,42.805,6.029,13.3026,4.60084,2470.67,2023-3-13T06:40:02Z
2023-03-13T04:40:27Z,42.805,6.029,13.3029,4.60087,2470.67,2023-3-13T06:43:05Z
2023-03-13T04:43:30Z,42.805,6.029,13.3034,4.60089,2470.693,2023-3-13T06:46:08Z
2023-03-13T04:46:33Z,42.805,6.029,13.3036,4.60090,2470.693,2023-3-13T06:49:11Z
2023-03-13T04:49:36Z,42.805,6.029,13.3032,4.60092,2470.707,2023-3-13T06:52:14Z
2023-03-13T04:52:39Z,42.805,6.029,13.3032,4.60090,2470.693,2023-3-13T06:55:17Z
2023-03-13T04:55:42Z,42.805,6.029,13.3036,4.60097,2470.693,2023-3-13T06:58:21Z
2023-03-13T04:58:45Z,42.805,6.029,13.3034,4.60099,2470.684,2023-3-13T07:01:24Z
2023-03-13T05:01:48Z,42.805,6.029,13.3031,4.60087,2470.67,2023-3-13T07:04:27Z
2023-03-13T05:04:51Z,42.805,6.029,13.3032,4.60090,2470.661,2023-3-13T07:07:30Z
2023-03-13T05:07:55Z,42.805,6.029,13.3039,4.60086,2470.684,2023-3-13T07:10:33Z
2023-03-13T05:10:58Z,42.805,6.029,13.3027,4.60089,2470.67,2023-3-13T07:13:36Z
2023-03-13T05:14:01Z,42.805,6.029,13.3031,4.60085,2470.684,2023-3-13T07:16:39Z
2023-03-13T05:17:04Z,42.805,6.029,13.3031,4.60090,2470.684,2023-3-13T07:19:42Z
2023-03-13T05:20:07Z,42.805,6.029,13.3029,4.60089,2470.67,2023-3-13T07:22:45Z
2023-03-13T05:23:10Z,42.805,6.029,13.3030,4.60087,2470.679,2023-3-13T07:25:48Z
2023-03-13T05:26:13Z,42.805,6.029,13.3035,4.60095,2470.693,2023-3-13T07:28:51Z
2023-03-13T05:29:16Z,42.805,6.029,13.3035,4.60093,2470.646,2023-3-13T07:31:54Z
2023-03-13T05:32:19Z,42.805,6.029,13.3029,4.60090,2470.707,2023-3-13T07:34:57Z
2023-03-13T05:35:22Z,42.805,6.029,13.3040,4.60087,2470.656,2023-3-13T07:38:01Z
2023-03-13T05:38:25Z,42.805,6.029,13.3035,4.60088,2470.67,2023-3-13T07:41:04Z
2023-03-13T05:41:28Z,42.805,6.029,13.3030,4.60089,2470.693,2023-3-13T07:44:07Z
2023-03-13T05:44:31Z,42.805,6.029,13.3029,4.60095,2470.693,2023-3-13T07:47:10Z
2023-03-13T05:47:34Z,42.805,6.029,13.3035,4.60094,2470.693,2023-3-13T07:50:13Z
2023-03-13T05:50:38Z,42.805,6.029,13.3036,4.60087,2470.684,2023-3-13T07:53:16Z
2023-03-13T05:53:41Z,42.805,6.029,13.3034,4.60090,2470.67,2023-3-13T07:56:19Z
2023-03-13T05:56:44Z,42.805,6.029,13.3037,4.60092,2470.67,2023-3-13T07:59:22Z
2023-03-13T05:59:47Z,42.805,6.029,13.3036,4.60092,2470.707,2023-3-13T08:02:25Z
2023-03-13T06:02:50Z,42.805,6.029,13.3034,4.60087,2470.707,2023-3-13T08:05:28Z
2023-03-13T06:05:53Z,42.805,6.029,13.3038,4.60085,2470.693,2023-3-13T08:08:31Z
2023-03-13T06:08:56Z,42.805,6.029,13.3032,4.60092,2470.693,2023-3-13T08:11:34Z
2023-03-13T06:11:59Z,42.805,6.029,13.3031,4.60092,2470.67,2023-3-13T08:14:37Z
2023-03-13T06:15:02Z,42.805,6.029,13.3034,4.60088,2470.684,2023-3-13T08:17:41Z
2023-03-13T06:18:05Z,42.805,6.029,13.3029,4.60087,2470.693,2023-3-13T08:20:44Z
2023-03-13T06:21:08Z,42.805,6.029,13.3043,4.60087,2470.717,2023-3-13T08:23:47Z
2023-03-13T06:24:11Z,42.805,6.029,13.3032,4.60093,2470.707,2023-3-13T08:26:50Z
2023-03-13T06:27:15Z,42.805,6.029,13.3035,4.60092,2470.67,2023-3-13T08:29:53Z
2023-03-13T06:30:18Z,42.805,6.029,13.3038,4.60093,2470.67,2023-3-13T08:32:56Z
2023-03-13T06:33:21Z,42.805,6.029,13.3042,4.60093,2470.693,2023-3-13T08:35:59Z
2023-03-13T06:36:24Z,42.805,6.029,13.3037,4.60089,2470.707,2023-3-13T08:39:02Z
2023-03-13T06:39:27Z,42.805,6.029,13.3036,4.60089,2470.693,2023-3-13T08:42:05Z
2023-03-13T06:42:30Z,42.805,6.029,13.3036,4.60089,2470.707,2023-3-13T08:45:08Z
2023-03-13T06:45:33Z,42.805,6.029,13.3029,4.60088,2470.693,2023-3-13T08:48:11Z
2023-03-13T06:48:36Z,42.805,6.029,13.3032,4.60089,2470.693,2023-3-13T08:51:14Z
2023-03-13T06:51:39Z,42.805,6.029,13.3026,4.60084,2470.707,2023-3-13T08:54:18Z
2023-03-13T06:54:42Z,42.805,6.029,13.3034,4.60091,2470.74,2023-3-13T08:57:21Z
2023-03-13T06:57:45Z,42.805,6.029,13.3037,4.60087,2470.693,2023-3-13T09:00:24Z
2023-03-13T07:00:48Z,42.805,6.029,13.3033,4.60086,2470.693,2023-3-13T09:03:27Z
2023-03-13T07:03:52Z,42.805,6.029,13.3029,4.60090,2470.717,2023-3-13T09:06:30Z
2023-03-13T07:06:55Z,42.805,6.029,13.3032,4.60090,2470.717,2023-3-13T09:09:33Z
2023-03-13T07:09:58Z,42.805,6.029,13.3029,4.60089,2470.74,2023-3-13T09:12:36Z
2023-03-13T07:13:01Z,42.805,6.029,13.3027,4.60092,2470.693,2023-3-13T09:15:39Z
2023-03-13T07:16:04Z,42.805,6.029,13.3031,4.60089,2470.73,2023-3-13T09:18:42Z
2023-03-13T07:19:07Z,42.805,6.029,13.3029,4.60089,2470.73,2023-3-13T09:21:45Z
2023-03-13T07:22:10Z,42.805,6.029,13.3024,4.60086,2470.717,2023-3-13T09:24:48Z
2023-03-13T07:25:13Z,42.805,6.029,13.3031,4.60086,2470.74,2023-3-13T09:27:51Z
2023-03-13T07:28:16Z,42.805,6.029,13.3027,4.60090,2470.693,2023-3-13T09:30:55Z
2023-03-13T07:31:19Z,42.805,6.029,13.3035,4.60092,2470.74,2023-3-13T09:33:58Z
2023-03-13T07:34:22Z,42.805,6.029,13.3034,4.60084,2470.717,2023-3-13T09:37:01Z
2023-03-13T07:37:25Z,42.805,6.029,13.3034,4.60085,2470.754,2023-3-13T09:40:04Z
2023-03-13T07:40:28Z,42.805,6.029,13.3033,4.60089,2470.754,2023-3-13T09:43:07Z
2023-03-13T07:43:32Z,42.805,6.029,13.3031,4.60090,2470.73,2023-3-13T09:46:10Z
2023-03-13T07:46:35Z,42.805,6.029,13.3036,4.60089,2470.74,2023-3-13T09:49:13Z
2023-03-13T07:49:38Z,42.805,6.029,13.3029,4.60089,2470.787,2023-3-13T09:52:16Z
2023-03-13T07:52:41Z,42.805,6.029,13.3033,4.60087,2470.74,2023-3-13T09:55:19Z
2023-03-13T07:55:44Z,42.805,6.029,13.3032,4.60087,2470.717,2023-3-13T09:58:22Z
2023-03-13T07:58:47Z,42.805,6.029,13.3038,4.60090,2470.74,2023-3-13T10:01:25Z
2023-03-13T08:01:50Z,42.805,6.029,13.3038,4.60090,2470.74,2023-3-13T10:04:28Z
2023-03-13T08:04:53Z,42.805,6.029,13.3029,4.60087,2470.754,2023-3-13T10:07:32Z
2023-03-13T08:07:56Z,42.805,6.029,13.3029,4.60087,2470.763,2023-3-13T10:10:35Z
2023-03-13T08:10:59Z,42.805,6.029,13.3023,4.60090,2470.787,2023-3-13T10:13:38Z
2023-03-13T08:14:02Z,42.805,6.029,13.3031,4.60094,2470.8,2023-3-13T10:16:41Z
2023-03-13T08:17:05Z,42.805,6.029,13.3034,4.60093,2470.74,2023-3-13T10:19:44Z
2023-03-13T08:20:09Z,42.805,6.029,13.3034,4.60088,2470.74,2023-3-13T10:22:47Z
2023-03-13T08:23:12Z,42.805,6.029,13.3034,4.60090,2470.763,2023-3-13T10:25:50Z
2023-03-13T08:26:15Z,42.805,6.029,13.3034,4.60089,2470.787,2023-3-13T10:28:53Z
2023-03-13T08:29:18Z,42.805,6.029,13.3036,4.60095,2470.763,2023-3-13T10:31:56Z
2023-03-13T08:32:21Z,42.805,6.029,13.3041,4.60094,2470.763,2023-3-13T10:34:59Z
2023-03-13T08:35:24Z,42.805,6.029,13.3036,4.60092,2470.763,2023-3-13T10:38:02Z
2023-03-13T08:38:27Z,42.805,6.029,13.3034,4.60096,2470.74,2023-3-13T10:41:05Z
2023-03-13T08:41:30Z,42.805,6.029,13.3039,4.60098,2470.8,2023-3-13T10:44:09Z
2023-03-13T08:44:33Z,42.805,6.029,13.3041,4.60092,2470.777,2023-3-13T10:47:12Z
2023-03-13T08:47:36Z,42.805,6.029,13.3036,4.60097,2470.74,2023-3-13T10:50:15Z
2023-03-13T08:50:39Z,42.805,6.029,13.3039,4.60091,2470.787,2023-3-13T10:53:18Z
2023-03-13T08:53:43Z,42.805,6.029,13.3038,4.60096,2470.777,2023-3-13T10:56:21Z
2023-03-13T08:56:46Z,42.805,6.029,13.3034,4.60091,2470.787,2023-3-13T10:59:24Z
2023-03-13T08:59:49Z,42.805,6.029,13.3035,4.60087,2470.787,2023-3-13T11:02:27Z
2023-03-13T09:02:52Z,42.805,6.029,13.3029,4.60086,2470.8,2023-3-13T11:05:30Z
2023-03-13T09:05:55Z,42.805,6.029,13.3032,4.60092,2470.777,2023-3-13T11:08:33Z
2023-03-13T09:08:58Z,42.805,6.029,13.3028,4.60087,2470.81,2023-3-13T11:11:36Z
2023-03-13T09:12:01Z,42.805,6.029,13.3033,4.60088,2470.81,2023-3-13T11:14:39Z
2023-03-13T09:15:04Z,42.805,6.029,13.3030,4.60088,2470.824,2023-3-13T11:17:43Z
2023-03-13T09:18:07Z,42.805,6.029,13.3033,4.60087,2470.763,2023-3-13T11:20:46Z
2023-03-13T09:21:10Z,42.805,6.029,13.3032,4.60090,2470.763,2023-3-13T11:23:49Z
2023-03-13T09:24:13Z,42.805,6.029,13.3031,4.60087,2470.8,2023-3-13T11:26:52Z
2023-03-13T09:27:16Z,42.805,6.029,13.3034,4.60092,2470.8,2023-3-13T11:29:55Z
2023-03-13T09:30:20Z,42.805,6.029,13.3036,4.60092,2470.787,2023-3-13T11:32:58Z
2023-03-13T09:33:23Z,42.805,6.029,13.3034,4.60092,2470.81,2023-3-13T11:36:01Z
2023-03-13T09:36:26Z,42.805,6.029,13.3040,4.60094,2470.8,2023-3-13T11:39:04Z
2023-03-13T09:39:29Z,42.805,6.029,13.3030,4.60097,2470.824,2023-3-13T11:42:07Z
2023-03-13T09:42:32Z,42.805,6.029,13.3043,4.60090,2470.787,2023-3-13T11:45:10Z
2023-03-13T09:45:35Z,42.805,6.029,13.3035,4.60097,2470.824,2023-3-13T11:48:13Z
2023-03-13T09:48:38Z,42.805,6.029,13.3036,4.60096,2470.81,2023-3-13T11:51:16Z
2023-03-13T09:51:41Z,42.805,6.029,13.3046,4.60090,2470.787,2023-3-13T11:54:20Z
2023-03-13T09:54:44Z,42.805,6.029,13.3037,4.60096,2470.787,2023-3-13T11:57:23Z
2023-03-13T09:57:47Z,42.805,6.029,13.3032,4.60097,2470.81,2023-3-13T12:00:26Z
2023-03-13T10:00:50Z,42.805,6.029,13.3047,4.60098,2470.787,2023-3-13T12:03:29Z
2023-03-13T10:03:53Z,42.805,6.029,13.3034,4.60098,2470.787,2023-3-13T12:06:32Z
2023-03-13T10:06:57Z,42.805,6.029,13.3041,4.60103,2470.824,2023-3-13T12:09:35Z
2023-03-13T10:10:00Z,42.805,6.029,13.3041,4.60095,2470.787,2023-3-13T12:12:38Z
2023-03-13T10:13:03Z,42.805,6.029,13.3029,4.60087,2470.847,2023-3-13T12:15:41Z
2023-03-13T10:16:06Z,42.805,6.029,13.3037,4.60093,2470.8,2023-3-13T12:18:44Z
2023-03-13T10:19:09Z,42.805,6.029,13.3032,4.60102,2470.81,2023-3-13T12:21:47Z
2023-03-13T10:22:12Z,42.805,6.029,13.3049,4.60092,2470.847,2023-3-13T12:24:50Z
2023-03-13T10:25:15Z,42.805,6.029,13.3037,4.60093,2470.81,2023-3-13T12:27:54Z
2023-03-13T10:28:18Z,42.805,6.029,13.3036,4.60093,2470.787,2023-3-13T12:30:57Z
2023-03-13T10:31:21Z,42.805,6.029,13.3047,4.60096,2470.847,2023-3-13T12:34:00Z
2023-03-13T10:34:24Z,42.805,6.029,13.3039,4.60102,2470.81,2023-3-13T12:37:03Z
2023-03-13T10:37:27Z,42.805,6.029,13.3046,4.60095,2470.81,2023-3-13T12:40:06Z
2023-03-13T10:40:30Z,42.805,6.029,13.3044,4.60096,2470.81,2023-3-13T12:43:09Z
2023-03-13T10:43:34Z,42.805,6.029,13.3033,4.60097,2470.81,2023-3-13T12:46:12Z
2023-03-13T10:46:37Z,42.805,6.029,13.3036,4.60103,2470.81,2023-3-13T12:49:15Z
2023-03-13T10:49:40Z,42.805,6.029,13.3031,4.60102,2470.763,2023-3-13T12:52:18Z
2023-03-13T10:52:43Z,42.805,6.029,13.3045,4.60096,2470.81,2023-3-13T12:55:21Z
2023-03-13T10:55:46Z,42.805,6.029,13.3043,4.60094,2470.777,2023-3-13T12:58:24Z
2023-03-13T10:58:49Z,42.805,6.029,13.3045,4.60097,2470.81,2023-3-13T13:01:27Z
2023-03-13T11:01:52Z,42.805,6.029,13.3036,4.60094,2470.787,2023-3-13T13:04:31Z
2023-03-13T11:04:55Z,42.805,6.029,13.3039,4.60094,2470.81,2023-3-13T13:07:34Z
2023-03-13T11:07:58Z,42.805,6.029,13.3039,4.60096,2470.81,2023-3-13T13:10:37Z
2023-03-13T11:11:01Z,42.805,6.029,13.3034,4.60094,2470.833,2023-3-13T13:13:40Z
2023-03-13T11:14:04Z,42.805,6.029,13.3031,4.60098,2470.8,2023-3-13T13:16:43Z
2023-03-13T11:17:08Z,42.805,6.029,13.3046,4.60096,2470.81,2023-3-13T13:19:46Z
2023-03-13T11:20:11Z,42.805,6.029,13.3031,4.60101,2470.8,2023-3-13T13:22:49Z
2023-03-13T11:23:14Z,42.805,6.029,13.3043,4.60098,2470.847,2023-3-13T13:25:52Z
2023-03-13T11:26:17Z,42.805,6.029,13.3044,4.60097,2470.81,2023-3-13T13:28:55Z
2023-03-13T11:29:20Z,42.805,6.029,13.3036,4.60097,2470.773,2023-3-13T13:31:58Z
2023-03-13T11:32:23Z,42.805,6.029,13.3041,4.60097,2470.8,2023-3-13T13:35:01Z
2023-03-13T11:35:26Z,42.805,6.029,13.3032,4.60093,2470.787,2023-3-13T13:38:04Z
2023-03-13T11:38:29Z,42.805,6.029,13.3037,4.60094,2470.8,2023-3-13T13:41:08Z
2023-03-13T11:41:32Z,42.805,6.029,13.3037,4.60092,2470.8,2023-3-13T13:44:11Z
2023-03-13T11:44:35Z,42.805,6.029,13.3034,4.60084,2470.8,2023-3-13T13:47:14Z
2023-03-13T11:47:38Z,42.805,6.029,13.3039,4.60097,2470.777,2023-3-13T13:50:17Z
2023-03-13T11:50:41Z,42.805,6.029,13.3038,4.60098,2470.787,2023-3-13T13:53:20Z
2023-03-13T11:53:45Z,42.805,6.029,13.3043,4.60104,2470.787,2023-3-13T13:56:23Z
2023-03-13T11:56:48Z,42.805,6.029,13.3040,4.60098,2470.763,2023-3-13T13:59:26Z
2023-03-13T11:59:51Z,42.805,6.029,13.3041,4.60107,2470.763,2023-3-13T14:02:29Z
2023-03-13T12:02:54Z,42.805,6.029,13.3041,4.60097,2470.763,2023-3-13T14:05:32Z
2023-03-13T12:05:57Z,42.805,6.029,13.3038,4.60090,2470.787,2023-3-13T14:08:35Z
2023-03-13T12:09:00Z,42.805,6.029,13.3048,4.60097,2470.787,2023-3-13T14:11:38Z
2023-03-13T12:12:03Z,42.805,6.029,13.3044,4.60095,2470.787,2023-3-13T14:14:42Z
2023-03-13T12:15:06Z,42.805,6.029,13.3047,4.60109,2470.787,2023-3-13T14:17:45Z
2023-03-13T12:18:09Z,42.805,6.029,13.3041,4.60103,2470.74,2023-3-13T14:20:48Z
2023-03-13T12:21:12Z,42.805,6.029,13.3059,4.60099,2470.754,2023-3-13T14:23:51Z
2023-03-13T12:24:15Z,42.805,6.029,13.3044,4.60095,2470.74,2023-3-13T14:26:54Z
2023-03-13T12:27:18Z,42.805,6.029,13.3037,4.60094,2470.777,2023-3-13T14:29:57Z
2023-03-13T12:30:22Z,42.805,6.029,13.3037,4.60099,2470.787,2023-3-13T14:33:00Z
2023-03-13T12:33:25Z,42.805,6.029,13.3046,4.60098,2470.777,2023-3-13T14:36:03Z
2023-03-13T12:36:28Z,42.805,6.029,13.3045,4.60109,2470.74,2023-3-13T14:39:06Z
2023-03-13T12:39:31Z,42.805,6.029,13.3036,4.60090,2470.777,2023-3-13T14:42:09Z
2023-03-13T12:42:34Z,42.805,6.029,13.3054,4.60098,2470.763,2023-3-13T14:45:12Z
2023-03-13T12:45:37Z,42.805,6.029,13.3041,4.60099,2470.763,2023-3-13T14:48:15Z
2023-03-13T12:48:40Z,42.805,6.029,13.3038,4.60106,2470.717,2023-3-13T14:51:19Z
2023-03-13T12:51:43Z,42.805,6.029,13.3048,4.60099,2470.74,2023-3-13T14:54:22Z
2023-03-13T12:54:46Z,42.805,6.029,13.3043,4.60102,2470.74,2023-3-13T14:57:25Z
2023-03-13T12:57:49Z,42.805,6.029,13.3045,4.60106,2470.74,2023-3-13T15:00:28Z
2023-03-13T13:00:52Z,42.805,6.029,13.3036,4.60108,2470.717,2023-3-13T15:03:31Z
2023-03-13T13:03:55Z,42.805,6.029,13.3041,4.60096,2470.74,2023-3-13T15:06:34Z
2023-03-13T13:06:59Z,42.805,6.029,13.3036,4.60111,2470.717,2023-3-13T15:09:37Z
2023-03-13T13:10:02Z,42.805,6.029,13.3042,4.60110,2470.717,2023-3-13T15:12:40Z
2023-03-13T13:13:05Z,42.805,6.029,13.3047,4.60091,2470.693,2023-3-13T15:15:43Z
2023-03-13T13:16:08Z,42.805,6.029,13.3047,4.60095,2470.777,2023-3-13T15:18:46Z
2023-03-13T13:19:11Z,42.805,6.029,13.3045,4.60094,2470.763,2023-3-13T15:21:49Z
2023-03-13T13:22:14Z,42.805,6.029,13.3043,4.60096,2470.754,2023-3-13T15:24:53Z
2023-03-13T13:25:17Z,42.805,6.029,13.3054,4.60090,2470.74,2023-3-13T15:27:56Z
2023-03-13T13:28:20Z,42.805,6.029,13.3048,4.60088,2470.693,2023-3-13T15:30:59Z
2023-03-13T13:31:23Z,42.805,6.029,13.3049,4.60101,2470.693,2023-3-13T15:34:02Z
2023-03-13T13:34:26Z,42.805,6.029,13.3043,4.60084,2470.717,2023-3-13T15:37:05Z
2023-03-13T13:37:29Z,42.805,6.029,13.3033,4.60097,2470.74,2023-3-13T15:40:08Z
2023-03-13T13:40:32Z,42.805,6.029,13.3037,4.60094,2470.67,2023-3-13T15:43:11Z
2023-03-13T13:43:36Z,42.805,6.029,13.3035,4.60085,2470.693,2023-3-13T15:46:14Z
2023-03-13T13:46:39Z,42.805,6.029,13.3034,4.60091,2470.707,2023-3-13T15:49:17Z
2023-03-13T13:49:42Z,42.805,6.029,13.3034,4.60101,2470.717,2023-3-13T15:52:20Z
2023-03-13T13:52:45Z,42.805,6.029,13.3036,4.60088,2470.717,2023-3-13T15:55:23Z
2023-03-13T13:55:48Z,42.805,6.029,13.3038,4.60096,2470.73,2023-3-13T15:58:26Z
2023-03-13T13:58:51Z,42.805,6.029,13.3040,4.60098,2470.693,2023-3-13T16:01:30Z
2023-03-13T14:01:54Z,42.805,6.029,13.3034,4.60097,2470.693,2023-3-13T16:04:33Z
2023-03-13T14:04:57Z,42.805,6.029,13.3033,4.60102,2470.707,2023-3-13T16:07:36Z
2023-03-13T14:08:00Z,42.805,6.029,13.3039,4.60088,2470.73,2023-3-13T16:10:39Z
2023-03-13T14:11:03Z,42.805,6.029,13.3036,4.60097,2470.707,2023-3-13T16:13:42Z
2023-03-13T14:14:06Z,42.805,6.029,13.3034,4.60106,2470.67,2023-3-13T16:16:45Z
2023-03-13T14:17:09Z,42.805,6.029,13.3051,4.60125,2470.717,2023-3-13T16:19:48Z
2023-03-13T14:20:13Z,42.805,6.029,13.3043,4.60104,2470.679,2023-3-13T16:22:51Z
2023-03-13T14:23:16Z,42.805,6.029,13.3054,4.60104,2470.717,2023-3-13T16:25:54Z
2023-03-13T14:26:19Z,42.805,6.029,13.3048,4.60093,2470.693,2023-3-13T16:28:57Z
2023-03-13T14:29:22Z,42.805,6.029,13.3050,4.60103,2470.693,2023-3-13T16:32:00Z
2023-03-13T14:32:25Z,42.805,6.029,13.3035,4.60103,2470.707,2023-3-13T16:35:03Z
2023-03-13T14:35:28Z,42.805,6.029,13.3036,4.60110,2470.693,2023-3-13T16:38:07Z
2023-03-13T14:38:31Z,42.805,6.029,13.3043,4.60096,2470.693,2023-3-13T16:41:10Z
2023-03-13T14:41:34Z,42.805,6.029,13.3041,4.60097,2470.707,2023-3-13T16:44:13Z
2023-03-13T14:44:37Z,42.805,6.029,13.3027,4.60114,2470.693,2023-3-13T16:47:16Z
2023-03-13T14:47:40Z,42.805,6.029,13.3031,4.60095,2470.684,2023-3-13T16:50:19Z
2023-03-13T14:50:43Z,42.805,6.029,13.3038,4.60096,2470.67,2023-3-13T16:53:22Z
2023-03-13T14:53:47Z,42.805,6.029,13.3036,4.60106,2470.67,2023-3-13T16:56:25Z
2023-03-13T14:56:50Z,42.805,6.029,13.3031,4.60112,2470.67,2023-3-13T16:59:28Z
2023-03-13T14:59:53Z,42.805,6.029,13.3039,4.60114,2470.684,2023-3-13T17:02:31Z
2023-03-13T15:02:56Z,42.805,6.029,13.3029,4.60103,2470.717,2023-3-13T17:05:34Z
2023-03-13T15:05:59Z,42.805,6.029,13.3031,4.60094,2470.67,2023-3-13T17:08:37Z
2023-03-13T15:09:02Z,42.805,6.029,13.3029,4.60102,2470.693,2023-3-13T17:11:40Z
2023-03-13T15:12:05Z,42.805,6.029,13.3034,4.60088,2470.67,2023-3-13T17:14:44Z
2023-03-13T15:15:08Z,42.805,6.029,13.3029,4.60105,2470.693,2023-3-13T17:17:47Z